Year,Month,Day,Hour,Minute,Value (Times are PST for temperature in C)
2010,08,24,00,00,14.00
2010,08,24,00,01,14.00
2010,08,24,00,02,14.00
2010,08,24,00,03,14.00
2010,08,24,00,04,14.00
2010,08,24,00,05,13.90
2010,08,24,00,06,13.90
2010,08,24,00,07,13.90
2010,08,24,00,08,13.90
2010,08,24,00,09,13.90
2010,08,24,00,10,13.80
2010,08,24,00,11,13.80
2010,08,24,00,12,13.80
2010,08,24,00,13,13.80
2010,08,24,00,14,13.70
2010,08,24,00,15,13.70
2010,08,24,00,16,13.70
2010,08,24,00,17,13.70
2010,08,24,00,18,13.80
2010,08,24,00,19,13.80
2010,08,24,00,20,13.70
2010,08,24,00,21,13.70
2010,08,24,00,22,13.70
2010,08,24,00,23,13.70
2010,08,24,00,24,13.70
2010,08,24,00,25,13.70
2010,08,24,00,26,13.70
2010,08,24,00,27,13.70
2010,08,24,00,28,13.70
2010,08,24,00,29,13.70
2010,08,24,00,30,13.70
2010,08,24,00,31,13.70
2010,08,24,00,32,13.70
2010,08,24,00,33,13.70
2010,08,24,00,34,13.70
2010,08,24,00,35,13.70
2010,08,24,00,36,13.70
2010,08,24,00,37,13.70
2010,08,24,00,38,13.70
2010,08,24,00,39,13.70
2010,08,24,00,40,13.70
2010,08,24,00,41,13.70
2010,08,24,00,42,13.60
2010,08,24,00,43,13.60
2010,08,24,00,44,13.60
2010,08,24,00,45,13.50
2010,08,24,00,46,13.50
2010,08,24,00,47,13.40
2010,08,24,00,48,13.40
2010,08,24,00,49,13.40
2010,08,24,00,50,13.30
2010,08,24,00,51,13.30
2010,08,24,00,52,13.30
2010,08,24,00,53,13.20
2010,08,24,00,54,13.20
2010,08,24,00,55,13.10
2010,08,24,00,56,13.10
2010,08,24,00,57,13.10
2010,08,24,00,58,13.00
2010,08,24,00,59,13.00
2010,08,24,01,00,12.90
2010,08,24,01,01,12.90
2010,08,24,01,02,12.90
2010,08,24,01,03,12.80
2010,08,24,01,04,12.80
2010,08,24,01,05,12.80
2010,08,24,01,06,12.80
2010,08,24,01,07,12.70
2010,08,24,01,08,12.70
2010,08,24,01,09,12.70
2010,08,24,01,10,12.70
2010,08,24,01,11,12.70
2010,08,24,01,12,12.60
2010,08,24,01,13,12.60
2010,08,24,01,14,12.60
2010,08,24,01,15,12.60
2010,08,24,01,16,12.60
2010,08,24,01,17,12.60
2010,08,24,01,18,12.60
2010,08,24,01,19,12.70
2010,08,24,01,20,12.70
2010,08,24,01,21,12.80
2010,08,24,01,22,12.80
2010,08,24,01,23,12.80
2010,08,24,01,24,12.80
2010,08,24,01,25,12.80
2010,08,24,01,26,12.90
2010,08,24,01,27,12.90
2010,08,24,01,28,12.90
2010,08,24,01,29,13.00
2010,08,24,01,30,13.10
2010,08,24,01,31,13.20
2010,08,24,01,32,13.30
2010,08,24,01,33,13.40
2010,08,24,01,34,13.50
2010,08,24,01,35,13.50
2010,08,24,01,36,13.60
2010,08,24,01,37,13.60
2010,08,24,01,38,13.70
2010,08,24,01,39,13.70
2010,08,24,01,40,13.80
2010,08,24,01,41,13.90
2010,08,24,01,42,13.90
2010,08,24,01,43,13.90
2010,08,24,01,44,14.00
2010,08,24,01,45,14.00
2010,08,24,01,46,14.00
2010,08,24,01,47,14.00
2010,08,24,01,48,14.00
2010,08,24,01,49,13.90
2010,08,24,01,50,13.90
2010,08,24,01,51,13.90
2010,08,24,01,52,13.90
2010,08,24,01,53,13.80
2010,08,24,01,54,13.80
2010,08,24,01,55,13.80
2010,08,24,01,56,13.80
2010,08,24,01,57,13.70
2010,08,24,01,58,13.70
2010,08,24,01,59,13.70
2010,08,24,02,00,13.70
2010,08,24,02,01,13.70
2010,08,24,02,02,13.70
2010,08,24,02,03,13.70
2010,08,24,02,04,13.70
2010,08,24,02,05,13.70
2010,08,24,02,06,13.70
2010,08,24,02,07,13.70
2010,08,24,02,08,13.70
2010,08,24,02,09,13.70
2010,08,24,02,10,13.70
2010,08,24,02,11,13.70
2010,08,24,02,12,13.70
2010,08,24,02,13,13.60
2010,08,24,02,14,13.50
2010,08,24,02,15,13.50
2010,08,24,02,16,13.40
2010,08,24,02,17,13.30
2010,08,24,02,18,13.30
2010,08,24,02,19,13.20
2010,08,24,02,20,13.10
2010,08,24,02,21,13.10
2010,08,24,02,22,13.00
2010,08,24,02,23,13.00
2010,08,24,02,24,12.90
2010,08,24,02,25,12.90
2010,08,24,02,26,12.90
2010,08,24,02,27,12.90
2010,08,24,02,28,12.90
2010,08,24,02,29,12.90
2010,08,24,02,30,12.90
2010,08,24,02,31,12.90
2010,08,24,02,32,12.90
2010,08,24,02,33,12.80
2010,08,24,02,34,12.80
2010,08,24,02,35,12.80
2010,08,24,02,36,12.80
2010,08,24,02,37,12.80
2010,08,24,02,38,12.80
2010,08,24,02,39,12.80
2010,08,24,02,40,12.80
2010,08,24,02,41,12.80
2010,08,24,02,42,12.80
2010,08,24,02,43,12.80
2010,08,24,02,44,12.80
2010,08,24,02,45,12.80
2010,08,24,02,46,12.80
2010,08,24,02,47,12.80
2010,08,24,02,48,12.80
2010,08,24,02,49,12.80
2010,08,24,02,50,12.80
2010,08,24,02,51,12.80
2010,08,24,02,52,12.80
2010,08,24,02,53,12.90
2010,08,24,02,54,12.80
2010,08,24,02,55,12.80
2010,08,24,02,56,12.80
2010,08,24,02,57,12.80
2010,08,24,02,58,12.80
2010,08,24,02,59,12.80
2010,08,24,03,00,12.80
2010,08,24,03,01,12.80
2010,08,24,03,02,12.80
2010,08,24,03,03,12.80
2010,08,24,03,04,12.90
2010,08,24,03,05,13.00
2010,08,24,03,06,13.10
2010,08,24,03,07,13.10
2010,08,24,03,08,13.10
2010,08,24,03,09,13.10
2010,08,24,03,10,13.10
2010,08,24,03,11,13.20
2010,08,24,03,12,13.20
2010,08,24,03,13,13.20
2010,08,24,03,14,13.20
2010,08,24,03,15,13.20
2010,08,24,03,16,13.20
2010,08,24,03,17,13.20
2010,08,24,03,18,13.20
2010,08,24,03,19,13.20
2010,08,24,03,20,13.20
2010,08,24,03,21,13.10
2010,08,24,03,22,13.10
2010,08,24,03,23,13.10
2010,08,24,03,24,13.00
2010,08,24,03,25,13.00
2010,08,24,03,26,13.00
2010,08,24,03,27,12.90
2010,08,24,03,28,12.90
2010,08,24,03,29,12.90
2010,08,24,03,30,12.90
2010,08,24,03,31,12.90
2010,08,24,03,32,12.90
2010,08,24,03,33,12.90
2010,08,24,03,34,12.90
2010,08,24,03,35,13.00
2010,08,24,03,36,13.00
2010,08,24,03,37,13.10
2010,08,24,03,38,13.20
2010,08,24,03,39,13.30
2010,08,24,03,40,13.30
2010,08,24,03,41,13.30
2010,08,24,03,42,13.40
2010,08,24,03,43,13.40
2010,08,24,03,44,13.50
2010,08,24,03,45,13.60
2010,08,24,03,46,13.70
2010,08,24,03,47,13.90
2010,08,24,03,48,13.90
2010,08,24,03,49,14.00
2010,08,24,03,50,14.20
2010,08,24,03,51,14.20
2010,08,24,03,52,14.30
2010,08,24,03,53,14.30
2010,08,24,03,54,14.40
2010,08,24,03,55,14.40
2010,08,24,03,56,14.40
2010,08,24,03,57,14.40
2010,08,24,03,58,14.50
2010,08,24,03,59,14.50
2010,08,24,04,00,14.50
2010,08,24,04,01,14.50
2010,08,24,04,02,14.50
2010,08,24,04,03,14.50
2010,08,24,04,04,14.60
2010,08,24,04,05,14.60
2010,08,24,04,06,14.60
2010,08,24,04,07,14.60
2010,08,24,04,08,14.60
2010,08,24,04,09,14.70
2010,08,24,04,10,14.70
2010,08,24,04,11,14.70
2010,08,24,04,12,14.70
2010,08,24,04,13,14.70
2010,08,24,04,14,14.70
2010,08,24,04,15,14.80
2010,08,24,04,16,14.80
2010,08,24,04,17,14.80
2010,08,24,04,18,14.80
2010,08,24,04,19,14.80
2010,08,24,04,20,14.80
2010,08,24,04,21,14.80
2010,08,24,04,22,14.80
2010,08,24,04,23,14.80
2010,08,24,04,24,14.90
2010,08,24,04,25,14.90
2010,08,24,04,26,14.90
2010,08,24,04,27,14.90
2010,08,24,04,28,15.00
2010,08,24,04,29,15.00
2010,08,24,04,30,15.00
2010,08,24,04,31,15.00
2010,08,24,04,32,15.00
2010,08,24,04,33,15.00
2010,08,24,04,34,15.00
2010,08,24,04,35,15.00
2010,08,24,04,36,15.00
2010,08,24,04,37,15.00
2010,08,24,04,38,15.00
2010,08,24,04,39,15.10
2010,08,24,04,40,15.10
2010,08,24,04,41,15.10
2010,08,24,04,42,15.10
2010,08,24,04,43,15.10
2010,08,24,04,44,15.20
2010,08,24,04,45,15.20
2010,08,24,04,46,15.20
2010,08,24,04,47,15.20
2010,08,24,04,48,15.20
2010,08,24,04,49,15.20
2010,08,24,04,50,15.20
2010,08,24,04,51,15.20
2010,08,24,04,52,15.20
2010,08,24,04,53,15.20
2010,08,24,04,54,15.20
2010,08,24,04,55,15.20
2010,08,24,04,56,15.20
2010,08,24,04,57,15.20
2010,08,24,04,58,15.20
2010,08,24,04,59,15.20
2010,08,24,05,00,15.20
2010,08,24,05,01,15.20
2010,08,24,05,02,15.20
2010,08,24,05,03,15.20
2010,08,24,05,04,15.20
2010,08,24,05,05,15.20
2010,08,24,05,06,15.30
2010,08,24,05,07,15.30
2010,08,24,05,08,15.30
2010,08,24,05,09,15.30
2010,08,24,05,10,15.30
2010,08,24,05,11,15.30
2010,08,24,05,12,15.20
2010,08,24,05,13,15.20
2010,08,24,05,14,15.20
2010,08,24,05,15,15.10
2010,08,24,05,16,15.10
2010,08,24,05,17,15.10
2010,08,24,05,18,15.00
2010,08,24,05,19,15.00
2010,08,24,05,20,15.00
2010,08,24,05,21,15.00
2010,08,24,05,22,15.00
2010,08,24,05,23,14.90
2010,08,24,05,24,14.90
2010,08,24,05,25,14.90
2010,08,24,05,26,14.90
2010,08,24,05,27,14.90
2010,08,24,05,28,14.80
2010,08,24,05,29,14.80
2010,08,24,05,30,14.80
2010,08,24,05,31,14.80
2010,08,24,05,32,14.80
2010,08,24,05,33,14.80
2010,08,24,05,34,14.70
2010,08,24,05,35,14.70
2010,08,24,05,36,14.60
2010,08,24,05,37,14.70
2010,08,24,05,38,14.70
2010,08,24,05,39,14.80
2010,08,24,05,40,14.80
2010,08,24,05,41,14.80
2010,08,24,05,42,14.80
2010,08,24,05,43,14.80
2010,08,24,05,44,14.90
2010,08,24,05,45,14.90
2010,08,24,05,46,15.00
2010,08,24,05,47,15.00
2010,08,24,05,48,15.00
2010,08,24,05,49,15.00
2010,08,24,05,50,15.00
2010,08,24,05,51,15.00
2010,08,24,05,52,15.00
2010,08,24,05,53,15.00
2010,08,24,05,54,15.10
2010,08,24,05,55,15.10
2010,08,24,05,56,15.10
2010,08,24,05,57,15.10
2010,08,24,05,58,15.10
2010,08,24,05,59,15.20
2010,08,24,06,00,15.20
2010,08,24,06,01,15.10
2010,08,24,06,02,15.10
2010,08,24,06,03,15.10
2010,08,24,06,04,15.10
2010,08,24,06,05,15.00
2010,08,24,06,06,15.00
2010,08,24,06,07,15.00
2010,08,24,06,08,15.00
2010,08,24,06,09,14.90
2010,08,24,06,10,14.90
2010,08,24,06,11,14.90
2010,08,24,06,12,14.80
2010,08,24,06,13,14.80
2010,08,24,06,14,14.80
2010,08,24,06,15,14.80
2010,08,24,06,16,14.80
2010,08,24,06,17,14.80
2010,08,24,06,18,14.70
2010,08,24,06,19,14.70
2010,08,24,06,20,14.80
2010,08,24,06,21,14.80
2010,08,24,06,22,14.80
2010,08,24,06,23,14.80
2010,08,24,06,24,14.70
2010,08,24,06,25,14.80
2010,08,24,06,26,14.70
2010,08,24,06,27,14.80
2010,08,24,06,28,14.80
2010,08,24,06,29,14.80
2010,08,24,06,30,14.70
2010,08,24,06,31,14.70
2010,08,24,06,32,14.70
2010,08,24,06,33,14.80
2010,08,24,06,34,14.80
2010,08,24,06,35,14.80
2010,08,24,06,36,14.80
2010,08,24,06,37,14.80
2010,08,24,06,38,14.80
2010,08,24,06,39,14.80
2010,08,24,06,40,14.80
2010,08,24,06,41,14.90
2010,08,24,06,42,14.90
2010,08,24,06,43,15.00
2010,08,24,06,44,15.00
2010,08,24,06,45,15.00
2010,08,24,06,46,15.10
2010,08,24,06,47,15.10
2010,08,24,06,48,15.20
2010,08,24,06,49,15.20
2010,08,24,06,50,15.20
2010,08,24,06,51,15.30
2010,08,24,06,52,15.30
2010,08,24,06,53,15.30
2010,08,24,06,54,15.30
2010,08,24,06,55,15.30
2010,08,24,06,56,15.30
2010,08,24,06,57,15.30
2010,08,24,06,58,15.30
2010,08,24,06,59,15.30
2010,08,24,07,00,15.30
2010,08,24,07,01,15.30
2010,08,24,07,02,15.30
2010,08,24,07,03,15.30
2010,08,24,07,04,15.30
2010,08,24,07,05,15.30
2010,08,24,07,06,15.30
2010,08,24,07,07,15.40
2010,08,24,07,08,15.40
2010,08,24,07,09,15.40
2010,08,24,07,10,15.50
2010,08,24,07,11,15.50
2010,08,24,07,12,15.50
2010,08,24,07,13,15.60
2010,08,24,07,14,15.60
2010,08,24,07,15,15.60
2010,08,24,07,16,15.70
2010,08,24,07,17,15.70
2010,08,24,07,18,15.70
2010,08,24,07,19,15.80
2010,08,24,07,20,15.80
2010,08,24,07,21,15.80
2010,08,24,07,22,15.80
2010,08,24,07,23,15.90
2010,08,24,07,24,15.90
2010,08,24,07,25,15.90
2010,08,24,07,26,16.00
2010,08,24,07,27,16.10
2010,08,24,07,28,16.10
2010,08,24,07,29,16.10
2010,08,24,07,30,16.10
2010,08,24,07,31,16.20
2010,08,24,07,32,16.20
2010,08,24,07,33,16.30
2010,08,24,07,34,16.30
2010,08,24,07,35,16.30
2010,08,24,07,36,16.40
2010,08,24,07,37,16.40
2010,08,24,07,38,16.40
2010,08,24,07,39,16.40
2010,08,24,07,40,16.40
2010,08,24,07,41,16.40
2010,08,24,07,42,16.40
2010,08,24,07,43,16.60
2010,08,24,07,44,16.60
2010,08,24,07,45,16.60
2010,08,24,07,46,16.60
2010,08,24,07,47,16.70
2010,08,24,07,48,16.70
2010,08,24,07,49,16.70
2010,08,24,07,50,16.70
2010,08,24,07,51,16.80
2010,08,24,07,52,16.80
2010,08,24,07,53,16.80
2010,08,24,07,54,16.90
2010,08,24,07,55,16.90
2010,08,24,07,56,16.90
2010,08,24,07,57,17.00
2010,08,24,07,58,17.00
2010,08,24,07,59,17.10
2010,08,24,08,00,17.20
2010,08,24,08,01,17.30
2010,08,24,08,02,17.30
2010,08,24,08,03,17.30
2010,08,24,08,04,17.40
2010,08,24,08,05,17.50
2010,08,24,08,06,17.50
2010,08,24,08,07,17.50
2010,08,24,08,08,17.60
2010,08,24,08,09,17.70
2010,08,24,08,10,17.80
2010,08,24,08,11,17.90
2010,08,24,08,12,17.90
2010,08,24,08,13,17.90
2010,08,24,08,14,17.90
2010,08,24,08,15,17.90
2010,08,24,08,16,17.90
2010,08,24,08,17,17.90
2010,08,24,08,18,17.90
2010,08,24,08,19,17.90
2010,08,24,08,20,17.90
2010,08,24,08,21,17.90
2010,08,24,08,22,18.00
2010,08,24,08,23,18.10
2010,08,24,08,24,18.20
2010,08,24,08,25,18.20
2010,08,24,08,26,18.20
2010,08,24,08,27,18.30
2010,08,24,08,28,18.40
2010,08,24,08,29,18.40
2010,08,24,08,30,18.30
2010,08,24,08,31,18.40
2010,08,24,08,32,18.40
2010,08,24,08,33,18.50
2010,08,24,08,34,18.50
2010,08,24,08,35,18.60
2010,08,24,08,36,18.70
2010,08,24,08,37,18.70
2010,08,24,08,38,18.70
2010,08,24,08,39,18.70
2010,08,24,08,40,18.80
2010,08,24,08,41,18.90
2010,08,24,08,42,19.00
2010,08,24,08,43,19.10
2010,08,24,08,44,19.10
2010,08,24,08,45,18.90
2010,08,24,08,46,18.90
2010,08,24,08,47,18.90
2010,08,24,08,48,18.90
2010,08,24,08,49,18.90
2010,08,24,08,50,18.90
2010,08,24,08,51,18.90
2010,08,24,08,52,18.90
2010,08,24,08,53,19.00
2010,08,24,08,54,19.10
2010,08,24,08,55,19.10
2010,08,24,08,56,19.10
2010,08,24,08,57,19.20
2010,08,24,08,58,19.30
2010,08,24,08,59,19.40
2010,08,24,09,00,19.50
2010,08,24,09,01,19.60
2010,08,24,09,02,19.70
2010,08,24,09,03,19.80
2010,08,24,09,04,19.80
2010,08,24,09,05,19.80
2010,08,24,09,06,19.90
2010,08,24,09,07,19.80
2010,08,24,09,08,19.70
2010,08,24,09,09,19.60
2010,08,24,09,10,19.60
2010,08,24,09,11,19.60
2010,08,24,09,12,19.60
2010,08,24,09,13,19.60
2010,08,24,09,14,19.60
2010,08,24,09,15,19.70
2010,08,24,09,16,19.80
2010,08,24,09,17,19.90
2010,08,24,09,18,19.90
2010,08,24,09,19,20.00
2010,08,24,09,20,20.10
2010,08,24,09,21,20.20
2010,08,24,09,22,20.10
2010,08,24,09,23,20.10
2010,08,24,09,24,20.00
2010,08,24,09,25,19.90
2010,08,24,09,26,20.00
2010,08,24,09,27,20.10
2010,08,24,09,28,20.10
2010,08,24,09,29,20.10
2010,08,24,09,30,20.10
2010,08,24,09,31,20.20
2010,08,24,09,32,20.20
2010,08,24,09,33,20.20
2010,08,24,09,34,20.20
2010,08,24,09,35,20.30
2010,08,24,09,36,20.30
2010,08,24,09,37,20.30
2010,08,24,09,38,20.40
2010,08,24,09,39,20.50
2010,08,24,09,40,20.50
2010,08,24,09,41,20.40
2010,08,24,09,42,20.30
2010,08,24,09,43,20.20
2010,08,24,09,44,20.20
2010,08,24,09,45,20.20
2010,08,24,09,46,20.30
2010,08,24,09,47,20.30
2010,08,24,09,48,20.30
2010,08,24,09,49,20.50
2010,08,24,09,50,20.60
2010,08,24,09,51,20.60
2010,08,24,09,52,20.70
2010,08,24,09,53,20.70
2010,08,24,09,54,20.70
2010,08,24,09,55,20.70
2010,08,24,09,56,20.80
2010,08,24,09,57,20.70
2010,08,24,09,58,20.60
2010,08,24,09,59,20.70
2010,08,24,10,00,20.80
2010,08,24,10,01,20.80
2010,08,24,10,02,20.90
2010,08,24,10,03,21.00
2010,08,24,10,04,21.10
2010,08,24,10,05,21.20
2010,08,24,10,06,21.20
2010,08,24,10,07,21.20
2010,08,24,10,08,21.20
2010,08,24,10,09,21.30
2010,08,24,10,10,21.30
2010,08,24,10,11,21.30
2010,08,24,10,12,21.40
2010,08,24,10,13,21.40
2010,08,24,10,14,21.30
2010,08,24,10,15,21.50
2010,08,24,10,16,21.60
2010,08,24,10,17,21.60
2010,08,24,10,18,21.60
2010,08,24,10,19,21.60
2010,08,24,10,20,21.60
2010,08,24,10,21,21.60
2010,08,24,10,22,21.80
2010,08,24,10,23,21.90
2010,08,24,10,24,21.80
2010,08,24,10,25,21.60
2010,08,24,10,26,21.60
2010,08,24,10,27,21.60
2010,08,24,10,28,21.40
2010,08,24,10,29,21.30
2010,08,24,10,30,21.30
2010,08,24,10,31,21.30
2010,08,24,10,32,21.30
2010,08,24,10,33,21.30
2010,08,24,10,34,21.40
2010,08,24,10,35,21.40
2010,08,24,10,36,21.30
2010,08,24,10,37,21.30
2010,08,24,10,38,21.30
2010,08,24,10,39,21.30
2010,08,24,10,40,21.50
2010,08,24,10,41,21.50
2010,08,24,10,42,21.50
2010,08,24,10,43,21.60
2010,08,24,10,44,21.50
2010,08,24,10,45,21.40
2010,08,24,10,46,21.40
2010,08,24,10,47,21.50
2010,08,24,10,48,21.60
2010,08,24,10,49,21.60
2010,08,24,10,50,21.60
2010,08,24,10,51,21.60
2010,08,24,10,52,21.40
2010,08,24,10,53,21.40
2010,08,24,10,54,21.50
2010,08,24,10,55,21.60
2010,08,24,10,56,21.60
2010,08,24,10,57,21.60
2010,08,24,10,58,21.70
2010,08,24,10,59,21.80
2010,08,24,11,00,22.00
2010,08,24,11,01,22.00
2010,08,24,11,02,22.10
2010,08,24,11,03,22.00
2010,08,24,11,04,21.90
2010,08,24,11,05,21.80
2010,08,24,11,06,21.80
2010,08,24,11,07,21.80
2010,08,24,11,08,21.90
2010,08,24,11,09,22.00
2010,08,24,11,10,22.20
2010,08,24,11,11,22.30
2010,08,24,11,12,22.30
2010,08,24,11,13,22.40
2010,08,24,11,14,22.60
2010,08,24,11,15,22.70
2010,08,24,11,16,22.70
2010,08,24,11,17,22.80
2010,08,24,11,18,22.90
2010,08,24,11,19,22.70
2010,08,24,11,20,22.50
2010,08,24,11,21,22.40
2010,08,24,11,22,22.40
2010,08,24,11,23,22.20
2010,08,24,11,24,22.10
2010,08,24,11,25,22.20
2010,08,24,11,26,22.20
2010,08,24,11,27,22.10
2010,08,24,11,28,22.20
2010,08,24,11,29,22.20
2010,08,24,11,30,22.20
2010,08,24,11,31,22.30
2010,08,24,11,32,22.30
2010,08,24,11,33,22.30
2010,08,24,11,34,22.20
2010,08,24,11,35,22.20
2010,08,24,11,36,22.10
2010,08,24,11,37,22.30
2010,08,24,11,38,22.50
2010,08,24,11,39,22.70
2010,08,24,11,40,22.70
2010,08,24,11,41,22.50
2010,08,24,11,42,22.40
2010,08,24,11,43,22.30
2010,08,24,11,44,22.30
2010,08,24,11,45,22.50
2010,08,24,11,46,22.60
2010,08,24,11,47,22.60
2010,08,24,11,48,22.50
2010,08,24,11,49,22.50
2010,08,24,11,50,22.60
2010,08,24,11,51,22.60
2010,08,24,11,52,22.70
2010,08,24,11,53,22.80
2010,08,24,11,54,22.80
2010,08,24,11,55,22.90
2010,08,24,11,56,22.90
2010,08,24,11,57,22.80
2010,08,24,11,58,22.90
2010,08,24,11,59,22.90
2010,08,24,12,00,22.90
2010,08,24,12,01,23.10
2010,08,24,12,02,23.30
2010,08,24,12,03,23.30
2010,08,24,12,04,23.20
2010,08,24,12,05,23.10
2010,08,24,12,06,22.90
2010,08,24,12,07,22.90
2010,08,24,12,08,22.90
2010,08,24,12,09,22.80
2010,08,24,12,10,22.70
2010,08,24,12,11,22.70
2010,08,24,12,12,22.70
2010,08,24,12,13,22.80
2010,08,24,12,14,22.90
2010,08,24,12,15,22.90
2010,08,24,12,16,22.90
2010,08,24,12,17,22.90
2010,08,24,12,18,22.90
2010,08,24,12,19,22.90
2010,08,24,12,20,22.90
2010,08,24,12,21,22.90
2010,08,24,12,22,22.90
2010,08,24,12,23,23.00
2010,08,24,12,24,23.10
2010,08,24,12,25,23.20
2010,08,24,12,26,23.20
2010,08,24,12,27,23.20
2010,08,24,12,28,23.20
2010,08,24,12,29,23.20
2010,08,24,12,30,23.20
2010,08,24,12,31,23.30
2010,08,24,12,32,23.30
2010,08,24,12,33,23.30
2010,08,24,12,34,23.20
2010,08,24,12,35,23.10
2010,08,24,12,36,23.10
2010,08,24,12,37,23.20
2010,08,24,12,38,23.20
2010,08,24,12,39,23.30
2010,08,24,12,40,23.40
2010,08,24,12,41,23.50
2010,08,24,12,42,23.70
2010,08,24,12,43,23.70
2010,08,24,12,44,23.70
2010,08,24,12,45,23.70
2010,08,24,12,46,23.50
2010,08,24,12,47,23.30
2010,08,24,12,48,23.40
2010,08,24,12,49,23.40
2010,08,24,12,50,23.50
2010,08,24,12,51,23.50
2010,08,24,12,52,23.30
2010,08,24,12,53,23.40
2010,08,24,12,54,23.60
2010,08,24,12,55,23.70
2010,08,24,12,56,23.80
2010,08,24,12,57,23.90
2010,08,24,12,58,23.90
2010,08,24,12,59,23.90
2010,08,24,13,00,23.90
2010,08,24,13,01,23.80
2010,08,24,13,02,23.90
2010,08,24,13,03,23.80
2010,08,24,13,04,23.80
2010,08,24,13,05,23.90
2010,08,24,13,06,24.00
2010,08,24,13,07,24.10
2010,08,24,13,08,24.10
2010,08,24,13,09,24.10
2010,08,24,13,10,24.10
2010,08,24,13,11,24.00
2010,08,24,13,12,23.90
2010,08,24,13,13,23.90
2010,08,24,13,14,23.90
2010,08,24,13,15,23.80
2010,08,24,13,16,23.80
2010,08,24,13,17,23.80
2010,08,24,13,18,24.00
2010,08,24,13,19,24.00
2010,08,24,13,20,24.10
2010,08,24,13,21,24.00
2010,08,24,13,22,24.10
2010,08,24,13,23,24.10
2010,08,24,13,24,24.10
2010,08,24,13,25,24.20
2010,08,24,13,26,24.20
2010,08,24,13,27,24.20
2010,08,24,13,28,24.30
2010,08,24,13,29,24.50
2010,08,24,13,30,24.70
2010,08,24,13,31,24.80
2010,08,24,13,32,24.80
2010,08,24,13,33,24.90
2010,08,24,13,34,25.00
2010,08,24,13,35,25.10
2010,08,24,13,36,24.90
2010,08,24,13,37,24.70
2010,08,24,13,38,24.60
2010,08,24,13,39,24.50
2010,08,24,13,40,24.50
2010,08,24,13,41,24.50
2010,08,24,13,42,24.50
2010,08,24,13,43,24.50
2010,08,24,13,44,24.60
2010,08,24,13,45,24.60
2010,08,24,13,46,24.50
2010,08,24,13,47,24.40
2010,08,24,13,48,24.50
2010,08,24,13,49,24.60
2010,08,24,13,50,24.70
2010,08,24,13,51,24.80
2010,08,24,13,52,24.80
2010,08,24,13,53,24.90
2010,08,24,13,54,25.00
2010,08,24,13,55,25.00
2010,08,24,13,56,24.90
2010,08,24,13,57,24.80
2010,08,24,13,58,24.80
2010,08,24,13,59,24.90
2010,08,24,14,00,24.90
2010,08,24,14,01,25.00
2010,08,24,14,02,24.90
2010,08,24,14,03,24.90
2010,08,24,14,04,24.90
2010,08,24,14,05,25.00
2010,08,24,14,06,25.00
2010,08,24,14,07,25.00
2010,08,24,14,08,25.00
2010,08,24,14,09,25.00
2010,08,24,14,10,25.00
2010,08,24,14,11,25.00
2010,08,24,14,12,25.00
2010,08,24,14,13,25.00
2010,08,24,14,14,25.00
2010,08,24,14,15,25.00
2010,08,24,14,16,25.00
2010,08,24,14,17,25.00
2010,08,24,14,18,25.20
2010,08,24,14,19,25.10
2010,08,24,14,20,25.00
2010,08,24,14,21,25.00
2010,08,24,14,22,25.10
2010,08,24,14,23,25.20
2010,08,24,14,24,25.20
2010,08,24,14,25,25.20
2010,08,24,14,26,25.20
2010,08,24,14,27,25.30
2010,08,24,14,28,25.30
2010,08,24,14,29,25.20
2010,08,24,14,30,25.20
2010,08,24,14,31,25.10
2010,08,24,14,32,25.30
2010,08,24,14,33,25.40
2010,08,24,14,34,25.50
2010,08,24,14,35,25.70
2010,08,24,14,36,25.70
2010,08,24,14,37,25.80
2010,08,24,14,38,25.90
2010,08,24,14,39,25.90
2010,08,24,14,40,26.00
2010,08,24,14,41,26.00
2010,08,24,14,42,26.10
2010,08,24,14,43,26.20
2010,08,24,14,44,26.20
2010,08,24,14,45,26.20
2010,08,24,14,46,26.10
2010,08,24,14,47,26.10
2010,08,24,14,48,26.00
2010,08,24,14,49,26.00
2010,08,24,14,50,25.90
2010,08,24,14,51,25.90
2010,08,24,14,52,25.80
2010,08,24,14,53,25.80
2010,08,24,14,54,25.80
2010,08,24,14,55,25.80
2010,08,24,14,56,25.80
2010,08,24,14,57,25.70
2010,08,24,14,58,25.60
2010,08,24,14,59,25.50
2010,08,24,15,00,25.50
2010,08,24,15,01,25.50
2010,08,24,15,02,25.50
2010,08,24,15,03,25.50
2010,08,24,15,04,25.60
2010,08,24,15,05,25.60
2010,08,24,15,06,25.60
2010,08,24,15,07,25.50
2010,08,24,15,08,25.50
2010,08,24,15,09,25.50
2010,08,24,15,10,25.40
2010,08,24,15,11,25.50
2010,08,24,15,12,25.60
2010,08,24,15,13,25.70
2010,08,24,15,14,25.70
2010,08,24,15,15,25.80
2010,08,24,15,16,25.80
2010,08,24,15,17,25.90
2010,08,24,15,18,25.90
2010,08,24,15,19,25.90
2010,08,24,15,20,25.90
2010,08,24,15,21,25.80
2010,08,24,15,22,25.60
2010,08,24,15,23,25.50
2010,08,24,15,24,25.40
2010,08,24,15,25,25.40
2010,08,24,15,26,25.40
2010,08,24,15,27,25.60
2010,08,24,15,28,25.60
2010,08,24,15,29,25.70
2010,08,24,15,30,25.60
2010,08,24,15,31,25.60
2010,08,24,15,32,25.70
2010,08,24,15,33,25.90
2010,08,24,15,34,26.00
2010,08,24,15,35,26.00
2010,08,24,15,36,26.10
2010,08,24,15,37,26.10
2010,08,24,15,38,26.10
2010,08,24,15,39,26.00
2010,08,24,15,40,25.90
2010,08,24,15,41,25.90
2010,08,24,15,42,25.90
2010,08,24,15,43,25.90
2010,08,24,15,44,25.80
2010,08,24,15,45,25.70
2010,08,24,15,46,25.60
2010,08,24,15,47,25.60
2010,08,24,15,48,25.70
2010,08,24,15,49,25.80
2010,08,24,15,50,25.90
2010,08,24,15,51,25.90
2010,08,24,15,52,25.90
2010,08,24,15,53,25.90
2010,08,24,15,54,25.80
2010,08,24,15,55,25.70
2010,08,24,15,56,25.80
2010,08,24,15,57,25.80
2010,08,24,15,58,25.80
2010,08,24,15,59,25.80
2010,08,24,16,00,25.80
2010,08,24,16,01,25.90
2010,08,24,16,02,26.00
2010,08,24,16,03,26.00
2010,08,24,16,04,26.10
2010,08,24,16,05,26.30
2010,08,24,16,06,26.40
2010,08,24,16,07,26.40
2010,08,24,16,08,26.40
2010,08,24,16,09,26.30
2010,08,24,16,10,26.30
2010,08,24,16,11,26.40
2010,08,24,16,12,26.40
2010,08,24,16,13,26.50
2010,08,24,16,14,26.50
2010,08,24,16,15,26.30
2010,08,24,16,16,25.90
2010,08,24,16,17,25.60
2010,08,24,16,18,25.40
2010,08,24,16,19,25.20
2010,08,24,16,20,25.00
2010,08,24,16,21,24.90
2010,08,24,16,22,24.80
2010,08,24,16,23,24.60
2010,08,24,16,24,24.50
2010,08,24,16,25,24.30
2010,08,24,16,26,24.30
2010,08,24,16,27,24.20
2010,08,24,16,28,24.10
2010,08,24,16,29,24.00
2010,08,24,16,30,23.80
2010,08,24,16,31,23.70
2010,08,24,16,32,23.70
2010,08,24,16,33,23.50
2010,08,24,16,34,23.40
2010,08,24,16,35,23.20
2010,08,24,16,36,23.10
2010,08,24,16,37,23.10
2010,08,24,16,38,23.10
2010,08,24,16,39,23.10
2010,08,24,16,40,23.10
2010,08,24,16,41,23.10
2010,08,24,16,42,23.10
2010,08,24,16,43,23.20
2010,08,24,16,44,23.30
2010,08,24,16,45,23.30
2010,08,24,16,46,23.40
2010,08,24,16,47,23.40
2010,08,24,16,48,23.40
2010,08,24,16,49,23.40
2010,08,24,16,50,23.30
2010,08,24,16,51,23.30
2010,08,24,16,52,23.40
2010,08,24,16,53,23.50
2010,08,24,16,54,23.60
2010,08,24,16,55,23.70
2010,08,24,16,56,23.70
2010,08,24,16,57,23.70
2010,08,24,16,58,23.70
2010,08,24,16,59,23.80
2010,08,24,17,00,23.70
2010,08,24,17,01,23.60
2010,08,24,17,02,23.50
2010,08,24,17,03,23.40
2010,08,24,17,04,23.30
2010,08,24,17,05,23.30
2010,08,24,17,06,23.30
2010,08,24,17,07,23.30
2010,08,24,17,08,23.30
2010,08,24,17,09,23.20
2010,08,24,17,10,23.30
2010,08,24,17,11,23.30
2010,08,24,17,12,23.30
2010,08,24,17,13,23.30
2010,08,24,17,14,23.40
2010,08,24,17,15,23.40
2010,08,24,17,16,23.40
2010,08,24,17,17,23.40
2010,08,24,17,18,23.40
2010,08,24,17,19,23.50